Regional Weather Roundup
Issued by NWS

Home | Current Version | Previous Version | Graphics & Text | Print | Product List | Glossary On
Versions: 1 2 3 4 5 6 7 8 9 10 11 12 13 14 15 16 17 18 19 20 21 22 23 24 25 26 27 28 29 30 31 32 33 34 35 36 37 38 39 40 41 42 43 44 45 46 47 48 49 50
000
ASUS43 KLSX 311059
RWRMO

WEATHER SUMMARY FOR MISSOURI
NATIONAL WEATHER SERVICE SPRINGFIELD MO
500 AM CST SAT JAN 31 2015

NOTE: "FAIR" INDICATES FEW OR NO CLOUDS BELOW 12,000 FEET WITH NO
       SIGNIFICANT WEATHER AND/OR OBSTRUCTIONS TO VISIBILITY.
       CURRENT SKY AND/OR WEATHER CONDITIONS ARE NOT AVAILABLE FOR
       CHILLICOTHE AND FARMINGTON.

MOZ001>031-035>038-043-044-053-054-311200-
...NORTHERN AND WESTERN MISSOURI...

CITY           SKY/WX    TMP DP  RH WIND       PRES   REMARKS
KANSAS CTY INT LGT RAIN  33  32  96 S5        30.26F WCI  29
KANSAS C DTWN  LGT RAIN  37  30  75 CALM      30.27F
LEE`S SUMMIT   LGT RAIN  35  27  72 CALM      30.27F
ST JOSEPH      LGT RAIN  33  30  88 S3        30.26F
CHILLICOTHE      N/A     32  21  64 SE5       30.28F WCI  27
KIRKSVILLE     MOCLDY    28  21  75 S5        30.27S WCI  23

$$
MOZ066>068-077>081-088>096-101>105-311200-
...SOUTHWEST MISSOURI...

CITY           SKY/WX    TMP DP  RH WIND       PRES   REMARKS
SPRINGFIELD    CLOUDY    40  20  44 SE9       30.28S
JOPLIN         CLOUDY    39  30  70 NE3       30.26S

$$
MOZ032>034-039>042-045>050-055>058-069>072-311200-
...CENTRAL MISSOURI...

CITY           SKY/WX    TMP DP  RH WIND       PRES   REMARKS
COLUMBIA       CLOUDY    32  21  64 S6        30.29S WCI  26
JEFFERSON CITY CLOUDY    30  24  78 SE3       30.32S
ROLLA          CLOUDY    35  20  54 S9        30.28S WCI  28
SEDALIA        CLOUDY    36  21  54 CALM      30.29F
OSAGE BEACH    CLOUDY    36  19  51 CALM      30.30R

$$
MOZ051-052-059>065-311200-
...EAST CENTRAL MISSOURI...

CITY           SKY/WX    TMP DP  RH WIND       PRES   REMARKS
ST LOUIS INTL  MOCLDY    32  19  58 CALM      30.33F
SPIRIT OF STL  MOCLDY    27  22  81 CALM      30.33S
ST CHARLES     PTCLDY    26  22  84 E5        30.33F WCI  20

$$
MOZ072>076-082>087-097>100-106>115-311200-
...SOUTH CENTRAL AND SOUTHEAST MISSOURI...

CITY           SKY/WX    TMP DP  RH WIND       PRES   REMARKS
CAPE GIRARDEAU MOCLDY    30  28  92 CALM      30.38S
FARMINGTON     CLOUDY    30  21  69 S5        30.35F WCI  25
POPLAR BLUFF   CLOUDY    31  25  78 CALM      30.37R
WEST PLAINS    CLOUDY    34  23  64 CALM      30.32F

$$


USA.gov is the U.S. government's official web portal to all federal, state and local government web resources and services.